GW5559 Weather Reports


time (UTC)temp
C
wind
direction
speed
KPH
gust
KPH
rain 1hr
cm
rain 24hr
cm
rain mn
cm
humidity
%
barometer
mb
20260504150515 15 237 16.1 27.4 0.00 0.00 0.00 52 1011.2
20260504140515 12 210 8.0 16.1 0.00 0.00 0.00 59 1011.7
20260504130516 10 223 6.4 12.9 0.00 0.00 0.00 60 1012.0
20260504110515 7 0.0 0.0 0.00 0.00 0.00 70 1012.1
20260504100517 5 0.0 0.0 0.00 0.00 0.00 72 1011.9
20260504081517 5 250 1.6 4.8 0.00 0.00 0.00 71 1012.2
20260504080517 5 0.0 0.0 0.00 0.00 0.00 70 1012.1
20260504050517 7 248 3.2 6.4 0.00 0.00 0.00 62 1012.0
20260504045517 8 249 4.8 6.4 0.00 0.00 0.00 60 1012.0
20260504044517 8 228 4.8 6.4 0.00 0.00 0.00 61 1012.0
20260504043517 8 237 4.8 8.0 0.00 0.00 0.00 62 1011.9
20260504042517 7 249 6.4 12.9 0.00 0.00 0.00 65 1011.9
20260504041517 7 278 1.6 4.8 0.00 0.00 0.00 66 1011.9
20260504040517 7 278 1.6 3.2 0.00 0.00 0.00 65 1011.7
20260504035516 7 0.0 1.6 0.00 0.00 0.00 65 1011.6
20260504034515 7 278 0.0 1.6 0.00 0.00 0.00 65 1011.4
20260504033516 7 0.0 0.0 0.00 0.00 0.00 62 1011.3
20260504032515 8 0.0 0.0 0.00 0.00 0.00 60 1011.4
20260504031516 8 0.0 1.6 0.00 0.00 0.00 59 1011.2
20260504030515 7 278 1.6 1.6 0.00 0.00 0.00 61 1011.2
20260504025515 8 0.0 0.0 0.00 0.00 0.00 60 1011.2
20260504024516 7 278 1.6 4.8 0.00 0.00 0.00 61 1011.2
20260504023516 8 278 0.0 1.6 0.00 0.00 0.00 58 1011.2
20260504022516 9 0.0 1.6 0.00 0.00 0.00 56 1011.3
20260504021515 8 0.0 0.0 0.00 0.00 0.00 57 1011.3
20260504020515 9 0.0 0.0 0.00 0.00 0.00 55 1011.2
20260504015515 10 278 1.6 4.8 0.00 0.00 0.00 53 1011.2
20260504014516 9 278 3.2 4.8 0.00 0.00 0.00 57 1011.2
20260504013535 10 278 1.6 4.8 0.00 0.00 0.00 54 1011.1
20260504012516 10 278 1.6 3.2 0.00 0.00 0.00 50 1011.2
20260504011516 11 278 3.2 3.2 0.00 0.00 0.00 49 1011.1
20260504010515 10 278 0.0 3.2 0.00 0.00 0.00 50 1011.0
20260504005536 11 278 1.6 4.8 0.00 0.00 0.00 49 1010.9
20260504004515 11 272 3.2 9.7 0.00 0.00 0.00 48 1010.9
20260504003515 11 243 8.0 12.9 0.00 0.00 0.00 46 1010.6
20260504002535 12 248 9.7 12.9 0.00 0.00 0.00 46 1010.4
20260504001515 12 244 9.7 19.3 0.00 0.00 0.00 44 1010.3
20260504000535 12 247 11.3 20.9 0.00 0.00 0.00 42 1010.3
20260503235515 13 253 11.3 24.1 0.00 0.00 0.00 41 1010.2
20260503234516 13 249 16.1 25.7 0.00 0.00 0.00 40 1010.2
20260503233536 13 254 16.1 35.4 0.00 0.00 0.00 40 1010.0
20260503232515 14 248 19.3 30.6 0.00 0.00 0.00 40 1009.9
20260503231535 14 249 12.9 20.9 0.00 0.00 0.00 40 1009.8
20260503230515 14 247 11.3 17.7 0.00 0.00 0.00 39 1009.8
20260503225515 13 256 14.5 30.6 0.00 0.00 0.00 39 1009.9
20260503224515 15 255 17.7 25.7 0.00 0.00 0.00 39 1009.8
20260503223515 14 252 17.7 29.0 0.00 0.00 0.00 39 1009.7
20260503222536 15 267 19.3 37.0 0.00 0.00 0.00 38 1009.7
20260503221515 15 249 16.1 25.7 0.00 0.00 0.00 40 1009.7
20260503220516 14 253 24.1 40.2 0.00 0.00 0.00 38 1009.7
20260503215515 14 256 19.3 32.2 0.00 0.00 0.00 40 1009.8
20260503214515 14 267 12.9 22.5 0.00 0.00 0.00 39 1009.8
20260503213535 14 263 16.1 30.6 0.00 0.00 0.00 39 1009.7
20260503212515 13 246 20.9 32.2 0.00 0.00 0.00 39 1009.6
20260503211515 14 252 24.1 38.6 0.00 0.00 0.00 37 1009.7
20260503210515 14 238 24.1 38.6 0.00 0.00 0.00 38 1009.6
20260503205516 14 250 24.1 32.2 0.00 0.00 0.00 37 1009.6
20260503204515 14 256 14.5 33.8 0.00 0.00 0.00 36 1009.6
20260503203515 14 244 30.6 38.6 0.00 0.00 0.00 38 1009.6
20260503202515 14 245 27.4 40.2 0.00 0.00 0.00 36 1009.7
20260503201516 14 266 20.9 41.8 0.00 0.00 0.00 36 1009.8
20260503200515 13 349 12.9 30.6 0.00 0.00 0.00 36 1009.9
20260503195515 13 258 16.1 29.0 0.00 0.00 0.00 37 1010.1
20260503194535 14 249 20.9 35.4 0.00 0.00 0.00 37 1010.3
20260503193515 14 288 16.1 30.6 0.00 0.00 0.00 37 1010.4
20260503192535 13 268 16.1 43.5 0.00 0.00 0.00 38 1010.5
20260503191515 13 244 24.1 38.6 0.00 0.00 0.00 40 1010.6
20260503190515 13 247 25.7 41.8 0.00 0.00 0.00 39 1010.6
20260503185535 13 262 20.9 40.2 0.00 0.00 0.00 39 1010.8
20260503184515 13 288 19.3 45.1 0.00 0.00 0.00 41 1011.0
20260503183515 12 310 19.3 43.5 0.00 0.00 0.00 38 1011.0
20260503182536 12 285 24.1 43.5 0.00 0.00 0.00 39 1011.1
20260503181516 12 317 17.7 37.0 0.00 0.00 0.00 40 1011.1
20260503180515 12 279 20.9 45.1 0.00 0.00 0.00 41 1011.1
20260503175515 12 283 24.1 40.2 0.00 0.00 0.00 41 1011.3
20260503174535 11 288 12.9 35.4 0.00 0.00 0.00 43 1011.4
20260503173515 11 257 30.6 49.9 0.00 0.00 0.00 42 1011.4
20260503172515 11 316 9.7 27.4 0.00 0.00 0.00 42 1011.6
20260503171516 11 330 16.1 38.6 0.00 0.00 0.00 43 1011.8
20260503170535 10 265 24.1 35.4 0.00 0.00 0.00 44 1011.8